This is the latest recevied weather packets stored in our database for station/object IZ1UQG-2. If no packets are shown the sender has not sent any weather packets the latest 10 day(s).
| Time | Temp. | Humidity | Pressure | Rain* | Wind** | Luminosity | Snow |
|---|---|---|---|---|---|---|---|
| 1778148663 | 17.78° C | 58% | 1011.7 hPa | 0 mm | - | 642 W/m² | - |
| 1778148064 | 17.78° C | 59% | 1011.7 hPa | 0 mm | - | 819 W/m² | - |
| 1778148004 | 17.78° C | 59% | 1011.7 hPa | 0 mm | - | 944 W/m² | - |
| 1778147644 | 16.67° C | 61% | 1011.8 hPa | 0 mm | - | 888 W/m² | - |
| 1778147585 | 16.67° C | 60% | 1011.7 hPa | 0 mm | - | 875 W/m² | - |
| 1778147044 | 16.67° C | 60% | 1011.9 hPa | 0 mm | - | 800 W/m² | - |
| 1778146504 | 16.67° C | 61% | 1011.8 hPa | 0 mm | - | 779 W/m² | - |
| 1778146204 | 16.67° C | 60% | 1011.8 hPa | 0 mm | - | 766 W/m² | - |
| 1778145904 | 16.67° C | 59% | 1011.7 hPa | 0 mm | - | 758 W/m² | - |
| 1778145484 | 16.67° C | 61% | 1011.8 hPa | 0 mm | - | 744 W/m² | - |
| 1778145244 | 16.67° C | 62% | 1011.7 hPa | 0 mm | - | 735 W/m² | - |
| 1778145064 | 16.67° C | 62% | 1011.7 hPa | 0 mm | - | 730 W/m² | - |
| 1778144464 | 16.11° C | 66% | 1011.7 hPa | 0 mm | - | 712 W/m² | - |
| 1778144284 | 16.11° C | 65% | 1011.8 hPa | 0 mm | - | 708 W/m² | - |
| 1778144044 | 16.11° C | 68% | 1011.8 hPa | 0 mm | - | 700 W/m² | - |
| 1778143989 | 16.11° C | 68% | 1011.8 hPa | 0 mm | - | 698 W/m² | - |
| 1778143504 | 15.56° C | 68% | 1011.9 hPa | 0 mm | - | 677 W/m² | - |
| 1778143144 | 15° C | 69% | 1011.8 hPa | 0 mm | - | 663 W/m² | - |
| 1778142965 | 15.56° C | 69% | 1011.8 hPa | 0 mm | - | 657 W/m² | - |
| 1778141584 | 14.44° C | 68% | 1012 hPa | 0 mm | - | 601 W/m² | - |
| 1778141344 | 14.44° C | 69% | 1011.9 hPa | 0 mm | - | 592 W/m² | - |
| 1778141284 | 14.44° C | 70% | 1011.9 hPa | 0 mm | - | 589 W/m² | - |
| 1778140563 | 13.89° C | 71% | 1012 hPa | 0 mm | - | 556 W/m² | - |
| 1778140444 | 13.33° C | 71% | 1012 hPa | 0 mm | - | 548 W/m² | - |
| 1778139964 | 13.33° C | 73% | 1012 hPa | 0 mm | - | 529 W/m² | - |
* Rain latest hour (hover to see other rain measurements)
** Current wind speed in m/s (hover to see current wind gust speed)